sat.trackr.live / text

‹ back to catalog

BEIDOU-3 M18 (C37)

NORAD 43707 · 2018-093B

PAYLOAD ACTIVE UNKNOWN

§ Identity

Operator
Country
PRC
Launch date
2018-11-18
Launch site
XICLF
Launch vehicle
Mass (kg)
RCS (m²)

Purposes: nav

External: N2YO · Heavens-Above · Gunter

§ Orbital elements

Epoch: 2026-05-25T02:01:41.047968Z

Period
773.25 min
Inclination
54.1682°
Eccentricity
0.0007646
Mean motion
1.86226506 rev/d
Perigee alt
21,507.2 km
Apogee alt
21,549.8 km
Semi-major
27,906.6 km
B*
0.0000e+0
RAAN
183.0719°
Arg perigee
321.1241°
Mean anomaly
38.8899°
Rev number
5,110

§ Raw data

BEIDOU-3 M18 (C37)1 43707U 18093B   26145.08450287  .00000062  00000+0  00000+0 0  99902 43707  54.1682 183.0719 0007646 321.1241  38.8899  1.86226506 51103

JSON: /api/v1/satellites/43707 · /tle

For live sub-satellite position, see the globe view (requires WebGL).

§ Visibility from observer

Set your observer location to see the next 7 days of passes ≥ 10°. The values pass through the URL so the page stays shareable.

No JS? Fill the form by hand. The geolocation button needs JavaScript.